Location: Unspecified
(40.7945°N, 0.0000°E)
Time: 19:19:50
(UTC+00:00)

Explorer 7 - Pass Details

Date: 20 June 2021
Orbit: 484 x 676 km, 50.3° (Epoch: 30 July)

Event Time Altitude Azimuth Distance (km) Brightness Sun altitude
Rises 23:53:28 0° 291° (WNW) 3,010 10.9 -25.7°
Reaches altitude 10° 23:56:14 10° 304° (NW) 2,078 10.2 -25.8°
Maximum altitude 00:00:12 25° 0° (N) 1,298 9.4 -25.8°
Drops below altitude 10° 00:04:03 10° 57° (ENE) 1,999 10.1 -25.8°
Sets 00:06:38 0° 70° (ENE) 2,869 10.7 -25.8°
